Wetterdaten: Dienstag, 11.10.2016
Datum Zeit Temp. A. Aussentemp2 Feuchte A. Luftdruck Regen Wind Richtung Richtung Sonnenschein Helligkeit Solar
11.10.2016 00:04 6,2 C 10,8 C 77 % 1020,9 hPa 0,0 l/m 4,9 km/h (1 Bft) N-NO 20 0 min 0 lux 0 W/m
11.10.2016 00:10 6,1 C 10,8 C 77 % 1020,9 hPa 0,0 l/m 5,1 km/h (1 Bft) N-NO 20 0 min 0 lux 0 W/m
11.10.2016 00:15 6,0 C 10,7 C 77 % 1020,9 hPa 0,0 l/m 1,7 km/h (1 Bft) N-NO 20 0 min 0 lux 0 W/m
11.10.2016 00:19 5,9 C 10,5 C 77 % 1020,9 hPa 0,0 l/m 4,3 km/h (1 Bft) N-NO 20 0 min 0 lux 0 W/m
11.10.2016 00:24 5,7 C 10,2 C 77 % 1020,9 hPa 0,0 l/m 0,0 km/h (0 Bft) N-NO 20 0 min 0 lux 0 W/m
11.10.2016 00:29 5,6 C 10,2 C 77 % 1020,9 hPa 0,0 l/m 0,0 km/h (0 Bft) N-NO 20 0 min 0 lux 0 W/m
11.10.2016 00:35 5,4 C 10,2 C 77 % 1020,9 hPa 0,0 l/m 0,0 km/h (0 Bft) N-NO 20 0 min 0 lux 0 W/m
11.10.2016 00:40 5,3 C 10,2 C 78 % 1020,9 hPa 0,0 l/m 0,0 km/h (0 Bft) N-NO 20 0 min 0 lux 0 W/m
11.10.2016 00:44 5,2 C 10,2 C 78 % 1020,9 hPa 0,0 l/m 3,3 km/h (1 Bft) N-NO 20 0 min 0 lux 0 W/m
11.10.2016 00:49 5,1 C 9,8 C 78 % 1020,9 hPa 0,0 l/m 3,3 km/h (1 Bft) N-NO 20 0 min 0 lux 0 W/m
11.10.2016 00:54 5,1 C 9,5 C 78 % 1020,9 hPa 0,0 l/m 0,0 km/h (0 Bft) N-NO 20 0 min 0 lux 0 W/m
11.10.2016 01:00 5,1 C 9,6 C 79 % 1020,9 hPa 0,0 l/m 0,0 km/h (0 Bft) N-NO 20 0 min 0 lux 0 W/m
11.10.2016 01:04 4,9 C 10,0 C 78 % 1020,9 hPa 0,0 l/m 0,0 km/h (0 Bft) N-NO 20 0 min 0 lux 0 W/m
11.10.2016 01:09 4,8 C 10,0 C 78 % 1020,9 hPa 0,0 l/m 3,9 km/h (1 Bft) N-NO 20 0 min 0 lux 0 W/m
11.10.2016 01:14 4,7 C 9,7 C 78 % 1020,9 hPa 0,0 l/m 4,0 km/h (1 Bft) N-NO 20 0 min 0 lux 0 W/m
11.10.2016 01:20 4,7 C 9,9 C 79 % 1020,9 hPa 0,0 l/m 0,0 km/h (0 Bft) N-NO 20 0 min 0 lux 0 W/m
11.10.2016 01:25 4,8 C 9,9 C 79 % 1020,9 hPa 0,0 l/m 0,0 km/h (0 Bft) N-NO 20 0 min 0 lux 0 W/m
11.10.2016 01:30 4,9 C 10,1 C 79 % 1020,9 hPa 0,0 l/m 0,0 km/h (0 Bft) N-NO 20 0 min 0 lux 0 W/m
11.10.2016 01:34 4,9 C 10,1 C 79 % 1020,9 hPa 0,0 l/m 0,0 km/h (0 Bft) N-NO 20 0 min 0 lux 0 W/m
11.10.2016 01:39 5,1 C 10,1 C 79 % 1020,9 hPa 0,0 l/m 0,0 km/h (0 Bft) N-NO 20 0 min 0 lux 0 W/m
11.10.2016 01:44 5,2 C 10,1 C 80 % 1020,9 hPa 0,0 l/m 0,0 km/h (0 Bft) N-NO 20 0 min 0 lux 0 W/m
11.10.2016 01:50 5,3 C 10,1 C 80 % 1020,9 hPa 0,0 l/m 0,0 km/h (0 Bft) N-NO 20 0 min 0 lux 0 W/m
11.10.2016 01:55 5,3 C 10,1 C 80 % 1020,9 hPa 0,0 l/m 0,0 km/h (0 Bft) N-NO 20 0 min 0 lux 0 W/m
11.10.2016 01:59 5,2 C 9,8 C 80 % 1020,9 hPa 0,0 l/m 0,0 km/h (0 Bft) N-NO 20 0 min 0 lux 0 W/m
11.10.2016 02:05 5,2 C 9,9 C 80 % 1020,9 hPa 0,0 l/m 0,0 km/h (0 Bft) N-NO 20 0 min 0 lux 0 W/m
11.10.2016 02:10 5,1 C 9,9 C 80 % 1020,9 hPa 0,0 l/m 0,0 km/h (0 Bft) N-NO 20 0 min 0 lux 0 W/m
11.10.2016 02:15 5,2 C 9,9 C 80 % 1020,9 hPa 0,0 l/m 0,0 km/h (0 Bft) N-NO 20 0 min 0 lux 0 W/m
11.10.2016 02:20 5,2 C 10,0 C 80 % 1020,9 hPa 0,0 l/m 0,0 km/h (0 Bft) N-NO 20 0 min 0 lux 0 W/m
11.10.2016 02:25 4,9 C 9,9 C 80 % 1020,9 hPa 0,0 l/m 0,0 km/h (0 Bft) N-NO 20 0 min 0 lux 0 W/m
11.10.2016 02:29 4,7 C 9,9 C 80 % 1020,9 hPa 0,0 l/m 0,0 km/h (0 Bft) N-NO 20 0 min 0 lux 0 W/m
11.10.2016 02:34 4,6 C 9,7 C 80 % 1020,9 hPa 0,0 l/m 0,0 km/h (0 Bft) N-NO 20 0 min 0 lux 0 W/m
11.10.2016 02:39 4,5 C 9,7 C 80 % 1020,9 hPa 0,0 l/m 0,0 km/h (0 Bft) N-NO 20 0 min 0 lux 0 W/m
11.10.2016 02:45 4,5 C 9,7 C 80 % 1020,9 hPa 0,0 l/m 0,0 km/h (0 Bft) N-NO 20 0 min 0 lux 0 W/m
11.10.2016 02:50 4,5 C 9,6 C 80 % 1020,9 hPa 0,0 l/m 0,0 km/h (0 Bft) N-NO 20 0 min 0 lux 0 W/m
11.10.2016 02:55 4,3 C 9,7 C 80 % 1020,9 hPa 0,0 l/m 2,9 km/h (1 Bft) N-NO 20 0 min 0 lux 0 W/m
11.10.2016 02:59 4,5 C 9,6 C 82 % 1020,9 hPa 0,0 l/m 3,3 km/h (1 Bft) N-NO 20 0 min 0 lux 0 W/m
11.10.2016 03:05 4,5 C 9,6 C 82 % 1020,9 hPa 0,0 l/m 4,6 km/h (1 Bft) N-NO 20 0 min 0 lux 0 W/m
11.10.2016 03:10 4,9 C 9,8 C 82 % 1020,9 hPa 0,0 l/m 5,7 km/h (2 Bft) N-NO 20 0 min 0 lux 0 W/m
11.10.2016 03:14 5,2 C 9,9 C 83 % 1020,9 hPa 0,0 l/m 5,1 km/h (1 Bft) N-NO 20 0 min 0 lux 0 W/m
11.10.2016 03:19 5,2 C 9,8 C 83 % 1020,9 hPa 0,0 l/m 3,0 km/h (1 Bft) N-NO 25 0 min 0 lux 0 W/m
11.10.2016 03:24 5,2 C 9,9 C 83 % 1020,9 hPa 0,0 l/m 5,6 km/h (2 Bft) N-NO 20 0 min 0 lux 0 W/m
11.10.2016 03:29 5,4 C 10,0 C 84 % 1020,9 hPa 0,0 l/m 6,7 km/h (2 Bft) N-NO 20 0 min 0 lux 0 W/m
11.10.2016 03:35 5,3 C 9,8 C 84 % 1020,9 hPa 0,0 l/m 5,4 km/h (2 Bft) N-NO 15 0 min 0 lux 0 W/m
11.10.2016 03:40 5,3 C 9,8 C 84 % 1020,9 hPa 0,0 l/m 0,1 km/h (0 Bft) N-NO 15 0 min 0 lux 0 W/m
11.10.2016 03:44 5,2 C 9,8 C 84 % 1020,9 hPa 0,0 l/m 4,2 km/h (1 Bft) N 10 0 min 0 lux 0 W/m
11.10.2016 03:49 5,1 C 9,8 C 84 % 1020,9 hPa 0,0 l/m 4,2 km/h (1 Bft) N 10 0 min 0 lux 0 W/m
11.10.2016 03:54 5,1 C 9,8 C 84 % 1020,9 hPa 0,0 l/m 5,9 km/h (2 Bft) N-NO 15 0 min 0 lux 0 W/m
11.10.2016 04:00 5,1 C 9,8 C 84 % 1020,9 hPa 0,0 l/m 7,6 km/h (2 Bft) N 10 0 min 0 lux 0 W/m
11.10.2016 04:04 5,1 C 9,7 C 84 % 1020,9 hPa 0,0 l/m 0,5 km/h (0 Bft) N 10 0 min 0 lux 0 W/m
11.10.2016 04:09 5,1 C 9,8 C 84 % 1020,9 hPa 0,0 l/m 1,0 km/h (0 Bft) N 10 0 min 0 lux 0 W/m
11.10.2016 04:14 4,8 C 9,2 C 84 % 1020,9 hPa 0,0 l/m 0,0 km/h (0 Bft) N 10 0 min 0 lux 0 W/m
11.10.2016 04:20 4,6 C 9,1 C 84 % 1019,9 hPa 0,0 l/m 0,0 km/h (0 Bft) N 10 0 min 0 lux 0 W/m
11.10.2016 04:25 4,4 C 9,0 C 84 % 1019,9 hPa 0,0 l/m 0,0 km/h (0 Bft) N 10 0 min 0 lux 0 W/m
11.10.2016 04:29 4,3 C 9,2 C 84 % 1019,9 hPa 0,0 l/m 0,0 km/h (0 Bft) N 10 0 min 0 lux 0 W/m
11.10.2016 04:34 4,1 C 9,3 C 84 % 1019,9 hPa 0,0 l/m 0,0 km/h (0 Bft) N 10 0 min 0 lux 0 W/m
11.10.2016 04:39 4,1 C 9,2 C 84 % 1019,9 hPa 0,0 l/m 0,0 km/h (0 Bft) N 10 0 min 0 lux 0 W/m
11.10.2016 04:45 4,2 C 9,5 C 84 % 1019,9 hPa 0,0 l/m 1,3 km/h (1 Bft) N 10 0 min 0 lux 0 W/m
11.10.2016 04:50 4,2 C 9,6 C 84 % 1019,9 hPa 0,0 l/m 3,0 km/h (1 Bft) N 10 0 min 0 lux 0 W/m
11.10.2016 04:55 4,4 C 9,6 C 84 % 1019,9 hPa 0,0 l/m 5,6 km/h (2 Bft) N 10 0 min 0 lux 0 W/m
11.10.2016 04:59 4,4 C 9,7 C 84 % 1019,9 hPa 0,0 l/m 5,6 km/h (2 Bft) N 10 0 min 0 lux 0 W/m
11.10.2016 05:05 4,3 C 9,6 C 84 % 1019,9 hPa 0,0 l/m 0,5 km/h (0 Bft) N 10 0 min 0 lux 0 W/m
11.10.2016 05:10 4,1 C 9,3 C 84 % 1019,9 hPa 0,0 l/m 0,0 km/h (0 Bft) N 10 0 min 0 lux 0 W/m
11.10.2016 05:14 3,9 C 9,5 C 83 % 1019,9 hPa 0,0 l/m 0,0 km/h (0 Bft) N 10 0 min 0 lux 0 W/m
11.10.2016 05:19 3,9 C 9,4 C 83 % 1019,9 hPa 0,0 l/m 0,0 km/h (0 Bft) N 10 0 min 0 lux 0 W/m
11.10.2016 05:24 3,9 C 9,4 C 83 % 1019,9 hPa 0,0 l/m 0,0 km/h (0 Bft) N 10 0 min 0 lux 0 W/m
11.10.2016 05:30 3,9 C 9,4 C 84 % 1019,9 hPa 0,0 l/m 0,3 km/h (0 Bft) N 10 0 min 0 lux 0 W/m
11.10.2016 05:35 3,9 C 9,5 C 84 % 1019,9 hPa 0,0 l/m 0,0 km/h (0 Bft) N 10 0 min 0 lux 0 W/m
11.10.2016 05:40 3,9 C 9,5 C 84 % 1019,9 hPa 0,0 l/m 0,0 km/h (0 Bft) N 10 0 min 0 lux 0 W/m
11.10.2016 05:44 3,9 C 9,5 C 84 % 1019,9 hPa 0,0 l/m 0,0 km/h (0 Bft) N 10 0 min 0 lux 0 W/m
11.10.2016 05:49 4,0 C 9,4 C 84 % 1019,9 hPa 0,0 l/m 0,4 km/h (0 Bft) N 10 0 min 0 lux 0 W/m
11.10.2016 05:54 4,1 C 9,5 C 84 % 1019,9 hPa 0,0 l/m 0,0 km/h (0 Bft) N 10 0 min 0 lux 0 W/m
11.10.2016 06:00 4,4 C 9,4 C 84 % 1019,9 hPa 0,0 l/m 4,6 km/h (1 Bft) N 10 0 min 0 lux 0 W/m
11.10.2016 06:04 4,5 C 9,4 C 84 % 1019,9 hPa 0,0 l/m 0,0 km/h (0 Bft) N 10 0 min 0 lux 0 W/m
11.10.2016 06:09 4,5 C 9,5 C 84 % 1019,9 hPa 0,0 l/m 0,3 km/h (0 Bft) N 10 0 min 0 lux 0 W/m
11.10.2016 06:15 4,7 C 9,3 C 84 % 1019,9 hPa 0,0 l/m 0,0 km/h (0 Bft) N 10 0 min 0 lux 0 W/m
11.10.2016 06:20 4,7 C 9,3 C 85 % 1019,9 hPa 0,0 l/m 4,0 km/h (1 Bft) N 10 0 min 0 lux 0 W/m
11.10.2016 06:25 4,6 C 9,4 C 85 % 1019,9 hPa 0,0 l/m 3,8 km/h (1 Bft) N 10 0 min 0 lux 0 W/m
11.10.2016 06:29 4,6 C 9,4 C 85 % 1019,9 hPa 0,0 l/m 2,8 km/h (1 Bft) N 10 0 min 0 lux 0 W/m
11.10.2016 06:34 4,3 C 9,2 C 84 % 1019,9 hPa 0,0 l/m 0,0 km/h (0 Bft) N 10 0 min 0 lux 0 W/m
11.10.2016 06:39 4,2 C 9,2 C 84 % 1019,9 hPa 0,0 l/m 0,0 km/h (0 Bft) N 10 0 min 0 lux 0 W/m
11.10.2016 06:45 3,9 C 9,2 C 84 % 1019,9 hPa 0,0 l/m 0,0 km/h (0 Bft) N 10 0 min 0 lux 0 W/m
11.10.2016 06:50 3,9 C 9,2 C 85 % 1019,9 hPa 0,0 l/m 0,0 km/h (0 Bft) N 10 0 min 0 lux 0 W/m
11.10.2016 06:54 4,1 C 9,1 C 85 % 1019,9 hPa 0,0 l/m 3,9 km/h (1 Bft) N 10 0 min 0 lux 0 W/m
11.10.2016 06:59 4,4 C 9,3 C 85 % 1019,9 hPa 0,0 l/m 4,8 km/h (1 Bft) N 10 0 min 0 lux 0 W/m
11.10.2016 07:05 4,6 C 9,2 C 86 % 1019,9 hPa 0,0 l/m 4,9 km/h (1 Bft) N 10 0 min 0 lux 0 W/m
11.10.2016 07:10 4,6 C 9,3 C 86 % 1019,9 hPa 0,0 l/m 4,3 km/h (1 Bft) N 10 0 min 0 lux 0 W/m
11.10.2016 07:14 4,7 C 9,3 C 86 % 1019,9 hPa 0,0 l/m 3,8 km/h (1 Bft) N 10 0 min 0 lux 0 W/m
11.10.2016 07:19 4,8 C 9,3 C 86 % 1019,9 hPa 0,0 l/m 6,7 km/h (2 Bft) N-NO22.5 15 0 min 0 lux 0 W/m
11.10.2016 07:24 4,9 C 9,3 C 87 % 1019,9 hPa 0,0 l/m 8,7 km/h (2 Bft) N-NO22.5 20 0 min 0 lux 0 W/m
11.10.2016 07:30 4,9 C 9,5 C 87 % 1019,9 hPa 0,0 l/m 7,3 km/h (2 Bft) N-NO22.5 15 0 min 0 lux 0 W/m
11.10.2016 07:35 4,9 C 9,3 C 87 % 1019,9 hPa 0,0 l/m 4,8 km/h (1 Bft) N-NO 20 0 min 33 lux 0 W/m
11.10.2016 07:39 5,2 C 9,2 C 87 % 1019,9 hPa 0,0 l/m 0,0 km/h (0 Bft) N-NO 20 0 min 33 lux 0 W/m
11.10.2016 07:44 5,2 C 9,3 C 87 % 1019,9 hPa 0,0 l/m 5,5 km/h (2 Bft) N22.5 10 0 min 33 lux 0 W/m
11.10.2016 07:49 5,2 C 9,5 C 87 % 1019,9 hPa 0,0 l/m 5,1 km/h (1 Bft) N 360 0 min 33 lux 0 W/m
11.10.2016 07:54 5,3 C 9,4 C 87 % 1019,9 hPa 0,0 l/m 6,3 km/h (2 Bft) N-NO22.5 15 0 min 33 lux 0 W/m
11.10.2016 07:59 5,3 C 9,3 C 87 % 1019,9 hPa 0,0 l/m 2,7 km/h (1 Bft) N-NO 25 0 min 507 lux 3 W/m
11.10.2016 08:05 5,2 C 9,4 C 87 % 1019,9 hPa 0,0 l/m 0,2 km/h (0 Bft) N-NO 25 0 min 507 lux 3 W/m
11.10.2016 08:10 5,4 C 9,3 C 87 % 1019,9 hPa 0,0 l/m 0,2 km/h (0 Bft) N-NO 25 0 min 834 lux 6 W/m
11.10.2016 08:14 5,4 C 8,7 C 87 % 1019,9 hPa 0,0 l/m 0,0 km/h (0 Bft) N-NO 25 0 min 834 lux 6 W/m
11.10.2016 08:19 5,3 C 8,7 C 87 % 1019,9 hPa 0,0 l/m 0,0 km/h (0 Bft) N-NO 30 0 min 834 lux 6 W/m
11.10.2016 08:24 5,2 C 8,8 C 87 % 1019,9 hPa 0,0 l/m 0,0 km/h (0 Bft) N-NO 30 0 min 1,67 klux 11 W/m
11.10.2016 08:30 5,3 C 8,9 C 87 % 1019,9 hPa 0,0 l/m 0,0 km/h (0 Bft) N-NO 30 0 min 1,67 klux 11 W/m
11.10.2016 08:35 5,5 C 9,4 C 87 % 1019,9 hPa 0,0 l/m 0,0 km/h (0 Bft) N-NO 30 0 min 1,67 klux 11 W/m
11.10.2016 08:39 5,6 C 9,4 C 87 % 1019,9 hPa 0,0 l/m 0,0 km/h (0 Bft) N-NO 30 0 min 1,67 klux 11 W/m
11.10.2016 08:44 5,7 C 9,5 C 87 % 1019,9 hPa 0,0 l/m 0,9 km/h (0 Bft) N 10 0 min 1,67 klux 11 W/m
11.10.2016 08:49 5,7 C 9,6 C 87 % 1019,9 hPa 0,0 l/m 1,3 km/h (1 Bft) N 10 0 min 1,67 klux 11 W/m
11.10.2016 08:55 5,9 C 9,6 C 87 % 1019,9 hPa 0,0 l/m 6,8 km/h (2 Bft) N-NO22.5 20 0 min 1,67 klux 11 W/m
11.10.2016 09:00 5,9 C 9,6 C 87 % 1019,9 hPa 0,0 l/m 7,8 km/h (2 Bft) NO 35 0 min 1,67 klux 11 W/m
11.10.2016 09:04 6,0 C 9,7 C 87 % 1019,9 hPa 0,0 l/m 8,1 km/h (2 Bft) N-NO 30 0 min 1,67 klux 11 W/m
11.10.2016 09:09 6,1 C 9,7 C 87 % 1019,9 hPa 0,0 l/m 5,0 km/h (1 Bft) N-NO 30 0 min 6,20 klux 42 W/m
11.10.2016 09:15 6,1 C 9,7 C 87 % 1019,9 hPa 0,0 l/m 5,4 km/h (2 Bft) N-NO 25 0 min 6,20 klux 42 W/m
11.10.2016 09:20 6,3 C 9,7 C 87 % 1019,9 hPa 0,0 l/m 0,0 km/h (0 Bft) N-NO 25 0 min 6,20 klux 42 W/m
11.10.2016 09:24 6,4 C 9,8 C 87 % 1019,9 hPa 0,0 l/m 0,0 km/h (0 Bft) N-NO 25 0 min 8,56 klux 59 W/m
11.10.2016 09:30 6,4 C 9,8 C 87 % 1019,9 hPa 0,0 l/m 0,0 km/h (0 Bft) N-NO 25 0 min 8,21 klux 56 W/m
11.10.2016 09:35 6,4 C 9,5 C 87 % 1019,9 hPa 0,0 l/m 0,5 km/h (0 Bft) N-NO 25 0 min 8,21 klux 56 W/m
11.10.2016 09:39 6,4 C 9,7 C 87 % 1019,9 hPa 0,0 l/m 0,0 km/h (0 Bft) N-NO 25 0 min 8,99 klux 61 W/m
11.10.2016 09:44 6,6 C 9,8 C 87 % 1020,9 hPa 0,0 l/m 4,7 km/h (1 Bft) N-NO 25 0 min 9,2 klux 63 W/m
11.10.2016 09:49 6,6 C 10,0 C 87 % 1020,9 hPa 0,0 l/m 3,0 km/h (1 Bft) N-NO 25 0 min 9,2 klux 63 W/m
11.10.2016 09:55 6,6 C 10,0 C 87 % 1020,9 hPa 0,0 l/m 0,0 km/h (0 Bft) N-NO 25 0 min 9,2 klux 63 W/m
11.10.2016 10:00 6,8 C 9,7 C 87 % 1020,9 hPa 0,0 l/m 0,0 km/h (0 Bft) N-NO 25 0 min 10,8 klux 74 W/m
11.10.2016 10:04 6,9 C 9,7 C 87 % 1020,9 hPa 0,0 l/m 0,0 km/h (0 Bft) N-NO 25 0 min 11,4 klux 78 W/m
11.10.2016 10:10 7,0 C 9,7 C 87 % 1020,9 hPa 0,0 l/m 0,0 km/h (0 Bft) N-NO 25 0 min 12,0 klux 82 W/m
11.10.2016 10:15 7,2 C 9,6 C 87 % 1020,8 hPa 0,0 l/m 0,0 km/h (0 Bft) N-NO 25 0 min 14,0 klux 96 W/m
11.10.2016 10:20 7,2 C 9,8 C 87 % 1020,8 hPa 0,0 l/m 0,0 km/h (0 Bft) N45 360 0 min 14,0 klux 96 W/m
11.10.2016 10:24 7,3 C 10,2 C 87 % 1020,8 hPa 0,0 l/m 0,0 km/h (0 Bft) N-NW 345 0 min 16,9 klux 116 W/m
11.10.2016 10:29 7,3 C 10,3 C 87 % 1020,8 hPa 0,0 l/m 0,0 km/h (0 Bft) N-NW 335 0 min 16,7 klux 114 W/m
11.10.2016 10:34 7,4 C 10,1 C 87 % 1020,8 hPa 0,0 l/m 0,0 km/h (0 Bft) N-NW 335 0 min 15,9 klux 109 W/m
11.10.2016 10:39 7,6 C 10,3 C 87 % 1020,8 hPa 0,0 l/m 0,0 km/h (0 Bft) N-NW 340 0 min 15,9 klux 109 W/m
11.10.2016 10:44 7,7 C 10,3 C 87 % 1020,8 hPa 0,0 l/m 0,0 km/h (0 Bft) N-NW 340 0 min 23,2 klux 159 W/m
11.10.2016 10:50 8,1 C 10,3 C 87 % 1020,8 hPa 0,0 l/m 0,0 km/h (0 Bft) N-NW 340 0 min 23,2 klux 159 W/m
11.10.2016 10:55 8,4 C 10,3 C 87 % 1020,8 hPa 0,0 l/m 0,0 km/h (0 Bft) N-NW 340 0 min 29,4 klux 201 W/m
11.10.2016 10:59 8,3 C 10,4 C 86 % 1019,8 hPa 0,0 l/m 1,2 km/h (1 Bft) NW22.5 315 0 min 27,2 klux 186 W/m
11.10.2016 11:04 8,1 C 10,3 C 84 % 1020,8 hPa 0,0 l/m 4,4 km/h (1 Bft) W-NW 290 0 min 28,8 klux 197 W/m
11.10.2016 11:10 8,4 C 10,5 C 84 % 1019,8 hPa 0,0 l/m 5,7 km/h (2 Bft) W-NW22.5 285 6 min 51,1 klux 350 W/m
11.10.2016 11:15 8,6 C 10,6 C 84 % 1019,8 hPa 0,0 l/m 0,3 km/h (0 Bft) N 355 5 min 42,6 klux 291 W/m
11.10.2016 11:19 9,0 C 10,7 C 82 % 1019,8 hPa 0,0 l/m 0,7 km/h (0 Bft) N 355 4 min 53,2 klux 364 W/m
11.10.2016 11:24 9,4 C 10,8 C 80 % 1019,8 hPa 0,0 l/m 0,5 km/h (0 Bft) N 5 5 min 53,2 klux 364 W/m
11.10.2016 11:29 9,6 C 11,0 C 79 % 1019,8 hPa 0,0 l/m 1,1 km/h (1 Bft) N22.5 360 5 min 50,6 klux 346 W/m
11.10.2016 11:35 9,9 C 11,1 C 77 % 1019,8 hPa 0,0 l/m 7,9 km/h (2 Bft) N22.5 360 0 min 34,1 klux 233 W/m
11.10.2016 11:40 9,8 C 11,0 C 75 % 1019,8 hPa 0,0 l/m 5,3 km/h (1 Bft) N22.5 350 0 min 27,8 klux 190 W/m
11.10.2016 11:44 9,9 C 11,1 C 73 % 1019,8 hPa 0,0 l/m 7,9 km/h (2 Bft) N-NW22.5 335 4 min 50,0 klux 342 W/m
11.10.2016 11:49 10,0 C 11,2 C 74 % 1019,8 hPa 0,0 l/m 1,0 km/h (0 Bft) N22.5 350 5 min 47,9 klux 328 W/m
11.10.2016 11:54 10,2 C 11,2 C 74 % 1019,8 hPa 0,0 l/m 0,9 km/h (0 Bft) N-NW45 340 0 min 30,3 klux 207 W/m
11.10.2016 12:00 10,5 C 11,2 C 73 % 1019,8 hPa 0,0 l/m 0,3 km/h (0 Bft) N-NW67.5 340 6 min 61,6 klux 421 W/m
11.10.2016 12:04 10,5 C 11,3 C 72 % 1019,8 hPa 0,0 l/m 6,7 km/h (2 Bft) W22.5 260 4 min 61,6 klux 421 W/m
11.10.2016 12:09 10,5 C 11,2 C 73 % 1019,8 hPa 0,0 l/m 0,0 km/h (0 Bft) W67.5 280 0 min 29,7 klux 203 W/m
11.10.2016 12:15 10,7 C 11,4 C 72 % 1019,8 hPa 0,0 l/m 11,9 km/h (2 Bft) NO22.5 40 6 min 42,4 klux 290 W/m
11.10.2016 12:20 11,2 C 11,3 C 67 % 1019,8 hPa 0,0 l/m 11,8 km/h (2 Bft) N-NO67.5 20 5 min 60,3 klux 412 W/m
11.10.2016 12:19 11,2 C 11,3 C 67 % 1019,8 hPa 0,0 l/m 11,8 km/h (2 Bft) N-NO67.5 20 -1 min 60,3 klux 412 W/m
11.10.2016 12:25 11,3 C 11,5 C 67 % 1019,8 hPa 0,0 l/m 14,8 km/h (3 Bft) N-NO22.5 30 0 min 34,0 klux 233 W/m
11.10.2016 12:30 11,5 C 11,5 C 66 % 1019,8 hPa 0,0 l/m 12,8 km/h (3 Bft) NO22.5 40 0 min 34,0 klux 233 W/m
11.10.2016 12:34 11,6 C 11,6 C 67 % 1019,8 hPa 0,0 l/m 8,0 km/h (2 Bft) NO22.5 35 0 min 32,6 klux 223 W/m
11.10.2016 12:39 11,6 C 11,5 C 66 % 1019,8 hPa 0,0 l/m 8,0 km/h (2 Bft) NO22.5 35 0 min 30,2 klux 207 W/m
11.10.2016 12:44 11,6 C 11,6 C 67 % 1019,8 hPa 0,0 l/m 9,8 km/h (2 Bft) N-NW22.5 340 0 min 29,1 klux 199 W/m
11.10.2016 12:50 11,7 C 11,7 C 66 % 1019,8 hPa 0,0 l/m 8,0 km/h (2 Bft) N22.5 355 0 min 28,7 klux 196 W/m
11.10.2016 12:55 11,6 C 11,6 C 67 % 1019,8 hPa 0,0 l/m 5,1 km/h (1 Bft) N22.5 360 0 min 23,6 klux 161 W/m
11.10.2016 12:59 11,6 C 11,6 C 65 % 1019,8 hPa 0,0 l/m 7,1 km/h (2 Bft) N22.5 5 0 min 27,9 klux 191 W/m
11.10.2016 13:04 11,6 C 11,6 C 66 % 1019,8 hPa 0,0 l/m 8,6 km/h (2 Bft) N22.5 5 0 min 29,7 klux 203 W/m
11.10.2016 13:10 11,6 C 11,7 C 66 % 1019,8 hPa 0,0 l/m 7,0 km/h (2 Bft) N-NO22.5 15 0 min 29,7 klux 203 W/m
11.10.2016 13:15 11,8 C 11,7 C 66 % 1019,8 hPa 0,0 l/m 8,7 km/h (2 Bft) N-NO22.5 25 0 min 24,2 klux 166 W/m
11.10.2016 13:19 11,8 C 11,7 C 67 % 1019,8 hPa 0,0 l/m 9,0 km/h (2 Bft) N22.5 10 0 min 23,4 klux 160 W/m
11.10.2016 13:24 11,8 C 11,7 C 66 % 1019,8 hPa 0,0 l/m 5,7 km/h (2 Bft) N-NO22.5 15 0 min 23,4 klux 160 W/m
11.10.2016 13:29 11,8 C 11,7 C 67 % 1019,8 hPa 0,0 l/m 0,1 km/h (0 Bft) N 5 0 min 22,7 klux 155 W/m
11.10.2016 13:35 12,0 C 11,7 C 66 % 1019,8 hPa 0,0 l/m 8,1 km/h (2 Bft) N-NO22.5 30 0 min 23,2 klux 159 W/m
11.10.2016 13:40 11,8 C 11,8 C 64 % 1019,8 hPa 0,0 l/m 0,6 km/h (0 Bft) N22.5 5 0 min 23,3 klux 159 W/m
11.10.2016 13:44 11,7 C 11,7 C 65 % 1019,8 hPa 0,0 l/m 5,1 km/h (1 Bft) N22.5 360 0 min 23,7 klux 162 W/m
11.10.2016 13:49 12,0 C 11,8 C 66 % 1019,8 hPa 0,0 l/m 9,1 km/h (2 Bft) N-NO45 20 0 min 23,7 klux 162 W/m
11.10.2016 13:54 12,4 C 12,1 C 63 % 1019,8 hPa 0,0 l/m 0,6 km/h (0 Bft) N-NW22.5 335 5 min 52,2 klux 357 W/m
11.10.2016 14:00 12,5 C 12,1 C 62 % 1019,8 hPa 0,0 l/m 10,8 km/h (2 Bft) N45 10 0 min 24,9 klux 170 W/m
11.10.2016 14:04 12,4 C 11,9 C 61 % 1019,8 hPa 0,0 l/m 12,3 km/h (2 Bft) N-NO22.5 25 0 min 17,3 klux 118 W/m
11.10.2016 14:09 12,1 C 11,9 C 60 % 1019,8 hPa 0,0 l/m 13,1 km/h (3 Bft) N-NO22.5 20 0 min 13,0 klux 89 W/m
11.10.2016 14:14 12,0 C 12,0 C 61 % 1019,8 hPa 0,0 l/m 6,5 km/h (2 Bft) N-NO22.5 25 0 min 13,0 klux 89 W/m
11.10.2016 14:20 12,3 C 12,0 C 61 % 1019,8 hPa 0,0 l/m 7,2 km/h (2 Bft) NO45 35 6 min 55,3 klux 378 W/m
11.10.2016 14:25 12,7 C 12,0 C 60 % 1018,8 hPa 0,0 l/m 10,3 km/h (2 Bft) N-NO45 25 5 min 60,1 klux 411 W/m
11.10.2016 14:29 13,0 C 12,1 C 59 % 1018,8 hPa 0,0 l/m 13,6 km/h (3 Bft) NO45 40 0 min 24,8 klux 170 W/m
11.10.2016 14:34 13,0 C 12,2 C 58 % 1018,8 hPa 0,0 l/m 12,7 km/h (3 Bft) N-NO45 25 0 min 21,3 klux 146 W/m
11.10.2016 14:39 12,8 C 12,2 C 57 % 1018,8 hPa 0,0 l/m 11,5 km/h (2 Bft) N-NO45 25 0 min 20,8 klux 142 W/m
11.10.2016 14:45 12,8 C 12,4 C 60 % 1018,8 hPa 0,0 l/m 11,9 km/h (2 Bft) N-NO67.5 15 0 min 17,7 klux 121 W/m
11.10.2016 14:50 13,0 C 12,5 C 62 % 1018,8 hPa 0,0 l/m 10,1 km/h (2 Bft) N45 355 0 min 15,8 klux 108 W/m
11.10.2016 14:54 13,1 C 12,8 C 60 % 1018,8 hPa 0,0 l/m 14,6 km/h (3 Bft) N-NO22.5 30 0 min 26,7 klux 183 W/m
11.10.2016 14:59 13,4 C 12,9 C 59 % 1018,8 hPa 0,0 l/m 13,8 km/h (3 Bft) N45 5 0 min 16,8 klux 115 W/m
11.10.2016 15:05 13,2 C 12,5 C 59 % 1018,8 hPa 0,0 l/m 7,9 km/h (2 Bft) N-NO22.5 15 0 min 16,7 klux 114 W/m
11.10.2016 15:10 13,0 C 12,4 C 61 % 1018,8 hPa 0,0 l/m 7,1 km/h (2 Bft) N-NW22.5 345 0 min 16,5 klux 113 W/m
11.10.2016 15:14 12,9 C 12,4 C 61 % 1018,8 hPa 0,0 l/m 9,8 km/h (2 Bft) N-NO45 25 0 min 15,0 klux 103 W/m
11.10.2016 15:19 12,7 C 12,3 C 62 % 1018,8 hPa 0,0 l/m 15,3 km/h (3 Bft) N22.5 10 0 min 15,0 klux 103 W/m
11.10.2016 15:24 12,7 C 12,2 C 62 % 1018,8 hPa 0,0 l/m 8,0 km/h (2 Bft) N22.5 5 0 min 16,9 klux 116 W/m
11.10.2016 15:30 12,7 C 12,3 C 62 % 1018,8 hPa 0,0 l/m 6,9 km/h (2 Bft) N22.5 5 0 min 14,7 klux 101 W/m
11.10.2016 15:35 12,6 C 12,2 C 63 % 1018,8 hPa 0,0 l/m 15,7 km/h (3 Bft) N-NO22.5 25 0 min 14,7 klux 101 W/m
11.10.2016 15:39 12,5 C 12,2 C 64 % 1018,8 hPa 0,0 l/m 15,7 km/h (3 Bft) N-NO22.5 25 0 min 9,7 klux 66 W/m
11.10.2016 15:44 12,3 C 12,2 C 65 % 1018,8 hPa 0,0 l/m 10,8 km/h (2 Bft) N67.5 10 0 min 11,6 klux 79 W/m
11.10.2016 15:49 12,4 C 12,2 C 65 % 1018,8 hPa 0,0 l/m 15,9 km/h (3 Bft) N-NO45 25 0 min 12,1 klux 83 W/m
11.10.2016 15:55 12,4 C 12,2 C 65 % 1018,8 hPa 0,0 l/m 15,8 km/h (3 Bft) N-NO22.5 30 0 min 13,2 klux 90 W/m
11.10.2016 16:00 12,2 C 12,2 C 65 % 1018,8 hPa 0,0 l/m 10,9 km/h (2 Bft) N22.5 5 0 min 13,2 klux 90 W/m
11.10.2016 16:04 12,3 C 12,2 C 66 % 1018,8 hPa 0,0 l/m 7,8 km/h (2 Bft) N45 10 0 min 12,2 klux 83 W/m
11.10.2016 16:10 12,3 C 12,2 C 66 % 1018,8 hPa 0,0 l/m 6,6 km/h (2 Bft) N22.5 10 0 min 11,5 klux 79 W/m
11.10.2016 16:15 12,2 C 12,2 C 67 % 1018,8 hPa 0,0 l/m 12,1 km/h (2 Bft) NO67.5 35 0 min 7,76 klux 53 W/m
11.10.2016 16:19 12,0 C 12,1 C 67 % 1018,8 hPa 0,0 l/m 10,4 km/h (2 Bft) N-NO67.5 30 0 min 7,76 klux 53 W/m
11.10.2016 16:24 12,0 C 12,1 C 67 % 1018,8 hPa 0,0 l/m 6,4 km/h (2 Bft) N22.5 360 0 min 8,91 klux 61 W/m
11.10.2016 16:29 12,0 C 12,1 C 68 % 1018,8 hPa 0,0 l/m 10,0 km/h (2 Bft) N45 360 0 min 8,91 klux 61 W/m
11.10.2016 16:35 11,9 C 12,1 C 68 % 1018,8 hPa 0,0 l/m 8,7 km/h (2 Bft) N45 10 0 min 8,91 klux 61 W/m
11.10.2016 16:40 11,8 C 12,1 C 68 % 1018,8 hPa 0,0 l/m 11,3 km/h (2 Bft) N-NO45 15 0 min 7,57 klux 52 W/m
11.10.2016 16:44 11,8 C 12,1 C 69 % 1018,8 hPa 0,0 l/m 7,0 km/h (2 Bft) N-NO22.5 15 0 min 8,64 klux 59 W/m
11.10.2016 16:49 11,7 C 12,1 C 69 % 1018,8 hPa 0,0 l/m 17,0 km/h (3 Bft) N-NO45 15 0 min 8,64 klux 59 W/m
11.10.2016 16:55 11,6 C 12,1 C 69 % 1018,8 hPa 0,0 l/m 11,5 km/h (2 Bft) N-NO67.5 15 0 min 9,8 klux 67 W/m
11.10.2016 17:00 11,7 C 12,1 C 69 % 1018,8 hPa 0,0 l/m 1,2 km/h (1 Bft) N67.5 5 0 min 9,8 klux 67 W/m
11.10.2016 17:04 11,7 C 12,1 C 69 % 1018,8 hPa 0,0 l/m 2,0 km/h (1 Bft) N22.5 5 0 min 9,8 klux 67 W/m
11.10.2016 17:09 11,6 C 12,1 C 69 % 1018,8 hPa 0,0 l/m 2,5 km/h (1 Bft) N22.5 350 0 min 6,94 klux 47 W/m
11.10.2016 17:15 11,6 C 12,2 C 70 % 1018,8 hPa 0,0 l/m 12,3 km/h (2 Bft) N-NO22.5 15 0 min 6,94 klux 47 W/m
11.10.2016 17:20 11,5 C 12,2 C 70 % 1018,8 hPa 0,0 l/m 3,9 km/h (1 Bft) N45 350 0 min 5,83 klux 40 W/m
11.10.2016 17:25 11,4 C 12,3 C 71 % 1018,8 hPa 0,0 l/m 0,1 km/h (0 Bft) NO22.5 50 0 min 6,19 klux 42 W/m
11.10.2016 17:29 11,4 C 12,2 C 71 % 1018,8 hPa 0,0 l/m 0,1 km/h (0 Bft) N-NW22.5 335 0 min 5,90 klux 40 W/m
11.10.2016 17:34 11,2 C 12,2 C 71 % 1018,8 hPa 0,0 l/m 5,8 km/h (2 Bft) N-NO22.5 15 0 min 4,79 klux 33 W/m
11.10.2016 17:40 11,2 C 12,2 C 71 % 1018,8 hPa 0,0 l/m 6,3 km/h (2 Bft) N22.5 5 0 min 4,81 klux 33 W/m
11.10.2016 17:45 11,2 C 12,2 C 71 % 1018,8 hPa 0,0 l/m 4,3 km/h (1 Bft) N-NO22.5 15 0 min 4,81 klux 33 W/m
11.10.2016 17:49 11,2 C 12,2 C 72 % 1018,8 hPa 0,0 l/m 0,9 km/h (0 Bft) N-NO22.5 15 0 min 5,57 klux 38 W/m
11.10.2016 17:54 11,2 C 12,2 C 72 % 1018,8 hPa 0,0 l/m 0,0 km/h (0 Bft) N 360 0 min 5,57 klux 38 W/m
11.10.2016 18:00 11,2 C 12,2 C 72 % 1018,8 hPa 0,0 l/m 0,0 km/h (0 Bft) N-NW 340 0 min 4,37 klux 30 W/m
11.10.2016 18:05 11,2 C 12,2 C 72 % 1018,8 hPa 0,0 l/m 7,3 km/h (2 Bft) N22.5 10 0 min 2,92 klux 20 W/m
11.10.2016 18:10 11,2 C 12,3 C 72 % 1018,8 hPa 0,0 l/m 7,2 km/h (2 Bft) N45 10 0 min 2,22 klux 15 W/m
11.10.2016 18:14 11,1 C 12,2 C 73 % 1018,8 hPa 0,0 l/m 5,5 km/h (2 Bft) N22.5 10 0 min 1,76 klux 12 W/m
11.10.2016 18:19 11,0 C 12,2 C 73 % 1018,8 hPa 0,0 l/m 12,6 km/h (3 Bft) N-NO45 15 0 min 1,76 klux 12 W/m
11.10.2016 18:25 11,0 C 12,2 C 73 % 1018,8 hPa 0,0 l/m 10,5 km/h (2 Bft) N22.5 5 0 min 1,76 klux 12 W/m
11.10.2016 18:29 10,8 C 12,2 C 73 % 1018,8 hPa 0,0 l/m 12,6 km/h (3 Bft) N45 5 0 min 1,08 klux 7 W/m
11.10.2016 18:34 10,8 C 12,1 C 73 % 1018,8 hPa 0,0 l/m 1,3 km/h (1 Bft) N22.5 5 0 min 1,08 klux 7 W/m
11.10.2016 18:39 10,8 C 12,2 C 74 % 1018,8 hPa 0,0 l/m 11,0 km/h (2 Bft) N-NO45 15 0 min 668 lux 5 W/m
11.10.2016 18:45 10,7 C 12,3 C 75 % 1018,8 hPa 0,0 l/m 12,3 km/h (2 Bft) N67.5 5 0 min 668 lux 0 W/m
11.10.2016 18:50 10,7 C 12,2 C 75 % 1018,8 hPa 0,0 l/m 9,4 km/h (2 Bft) N-NO22.5 25 0 min 327 lux 0 W/m
11.10.2016 18:54 10,6 C 12,2 C 75 % 1018,8 hPa 0,0 l/m 9,7 km/h (2 Bft) N-NO22.5 15 0 min 327 lux 0 W/m
11.10.2016 18:59 10,6 C 12,2 C 75 % 1018,8 hPa 0,0 l/m 8,4 km/h (2 Bft) N-NO22.5 15 0 min 327 lux 0 W/m
11.10.2016 19:05 10,5 C 12,2 C 75 % 1018,8 hPa 0,0 l/m 9,5 km/h (2 Bft) N22.5 5 0 min 327 lux 0 W/m
11.10.2016 19:10 10,4 C 12,2 C 76 % 1018,8 hPa 0,0 l/m 11,0 km/h (2 Bft) N22.5 5 0 min 327 lux 0 W/m
11.10.2016 19:14 10,4 C 12,2 C 76 % 1018,8 hPa 0,0 l/m 7,7 km/h (2 Bft) N-NO22.5 15 0 min 12 lux 0 W/m
11.10.2016 19:19 10,4 C 12,1 C 76 % 1018,8 hPa 0,0 l/m 5,3 km/h (1 Bft) N22.5 5 0 min 5 lux 0 W/m
11.10.2016 19:25 10,4 C 12,1 C 76 % 1018,8 hPa 0,0 l/m 0,2 km/h (0 Bft) N-NW22.5 335 0 min 1 lux 0 W/m
11.10.2016 19:30 10,4 C 12,1 C 76 % 1018,8 hPa 0,0 l/m 0,4 km/h (0 Bft) N22.5 5 0 min 1 lux 0 W/m
11.10.2016 19:34 10,3 C 12,1 C 77 % 1018,8 hPa 0,0 l/m 4,2 km/h (1 Bft) N67.5 10 0 min 0 lux 0 W/m
11.10.2016 19:39 10,3 C 12,1 C 77 % 1018,8 hPa 0,0 l/m 1,3 km/h (1 Bft) N 10 0 min 0 lux 0 W/m
11.10.2016 19:44 10,3 C 12,1 C 77 % 1018,8 hPa 0,0 l/m 0,0 km/h (0 Bft) N 10 0 min 0 lux 0 W/m
11.10.2016 19:50 10,3 C 12,1 C 77 % 1018,8 hPa 0,0 l/m 0,3 km/h (0 Bft) N 355 0 min 0 lux 0 W/m
11.10.2016 19:55 10,2 C 12,1 C 77 % 1018,8 hPa 0,0 l/m 0,1 km/h (0 Bft) N 355 0 min 0 lux 0 W/m
11.10.2016 19:59 10,2 C 12,1 C 77 % 1018,8 hPa 0,0 l/m 0,0 km/h (0 Bft) N 360 0 min 0 lux 0 W/m
11.10.2016 20:05 10,1 C 12,1 C 77 % 1018,8 hPa 0,0 l/m 0,0 km/h (0 Bft) N 360 0 min 0 lux 0 W/m
11.10.2016 20:10 10,1 C 12,1 C 77 % 1018,8 hPa 0,0 l/m 0,5 km/h (0 Bft) N 360 0 min 0 lux 0 W/m
11.10.2016 20:15 10,1 C 12,1 C 77 % 1018,8 hPa 0,0 l/m 0,1 km/h (0 Bft) N-NO22.5 25 0 min 0 lux 0 W/m
11.10.2016 20:19 10,1 C 12,1 C 77 % 1018,8 hPa 0,0 l/m 0,9 km/h (0 Bft) N 10 0 min 0 lux 0 W/m
11.10.2016 20:24 10,1 C 12,1 C 77 % 1018,8 hPa 0,0 l/m 3,1 km/h (1 Bft) N 10 0 min 0 lux 0 W/m
11.10.2016 20:30 10,1 C 12,1 C 78 % 1018,8 hPa 0,0 l/m 1,8 km/h (1 Bft) N 10 0 min 0 lux 0 W/m
11.10.2016 20:35 10,1 C 12,1 C 78 % 1018,8 hPa 0,0 l/m 0,4 km/h (0 Bft) N 5 0 min 0 lux 0 W/m
11.10.2016 20:34 10,1 C 12,1 C 78 % 1018,8 hPa 0,0 l/m 0,4 km/h (0 Bft) N 5 0 min 0 lux 0 W/m
11.10.2016 20:40 10,1 C 12,1 C 78 % 1018,8 hPa 0,0 l/m 1,2 km/h (1 Bft) N-NO 20 0 min 0 lux 0 W/m
11.10.2016 20:45 10,1 C 12,1 C 78 % 1018,8 hPa 0,0 l/m 0,3 km/h (0 Bft) N-NO 15 0 min 0 lux 0 W/m
11.10.2016 20:49 10,1 C 12,1 C 78 % 1018,8 hPa 0,0 l/m 11,3 km/h (2 Bft) N22.5 10 0 min 0 lux 0 W/m
11.10.2016 20:54 10,0 C 12,2 C 78 % 1018,8 hPa 0,0 l/m 8,5 km/h (2 Bft) N-NO22.5 30 0 min 0 lux 0 W/m
11.10.2016 21:00 10,0 C 12,1 C 78 % 1018,8 hPa 0,0 l/m 9,2 km/h (2 Bft) N-NO22.5 20 0 min 0 lux 0 W/m
11.10.2016 21:04 10,0 C 12,2 C 78 % 1018,8 hPa 0,0 l/m 8,2 km/h (2 Bft) N-NO22.5 15 0 min 0 lux 0 W/m
11.10.2016 21:09 10,0 C 12,2 C 78 % 1018,8 hPa 0,0 l/m 5,6 km/h (2 Bft) N-NO22.5 20 0 min 0 lux 0 W/m
11.10.2016 21:14 10,0 C 12,2 C 79 % 1018,8 hPa 0,0 l/m 1,3 km/h (1 Bft) N-NO22.5 20 0 min 0 lux 0 W/m
11.10.2016 21:20 10,0 C 12,2 C 78 % 1018,8 hPa 0,0 l/m 4,1 km/h (1 Bft) N-NO22.5 15 0 min 0 lux 0 W/m
11.10.2016 21:25 10,0 C 12,2 C 79 % 1018,8 hPa 0,0 l/m 6,2 km/h (2 Bft) N-NO22.5 20 0 min 0 lux 0 W/m
11.10.2016 21:29 10,0 C 12,2 C 79 % 1018,8 hPa 0,0 l/m 1,0 km/h (0 Bft) N22.5 360 0 min 0 lux 0 W/m
11.10.2016 21:34 9,9 C 12,2 C 79 % 1018,8 hPa 0,0 l/m 4,1 km/h (1 Bft) N-NO22.5 15 0 min 0 lux 0 W/m
11.10.2016 21:39 9,9 C 12,2 C 79 % 1018,8 hPa 0,0 l/m 1,8 km/h (1 Bft) N22.5 360 0 min 0 lux 0 W/m
11.10.2016 21:45 9,9 C 12,2 C 79 % 1018,8 hPa 0,0 l/m 1,7 km/h (1 Bft) N-NO22.5 25 0 min 0 lux 0 W/m
11.10.2016 21:50 9,9 C 12,2 C 79 % 1018,8 hPa 0,0 l/m 5,2 km/h (1 Bft) N 360 0 min 0 lux 0 W/m
11.10.2016 21:54 9,9 C 12,2 C 79 % 1018,8 hPa 0,0 l/m 0,7 km/h (0 Bft) N22.5 360 0 min 0 lux 0 W/m
11.10.2016 21:59 9,8 C 12,2 C 79 % 1018,8 hPa 0,0 l/m 0,1 km/h (0 Bft) N 360 0 min 0 lux 0 W/m
11.10.2016 22:05 9,8 C 12,2 C 79 % 1018,8 hPa 0,0 l/m 0,3 km/h (0 Bft) N-NO22.5 20 0 min 0 lux 0 W/m
11.10.2016 22:09 9,8 C 12,2 C 80 % 1018,8 hPa 0,0 l/m 0,1 km/h (0 Bft) N-NO 20 0 min 0 lux 0 W/m
11.10.2016 22:14 9,8 C 12,2 C 80 % 1018,8 hPa 0,0 l/m 4,0 km/h (1 Bft) N-NO 15 0 min 0 lux 0 W/m
11.10.2016 22:20 9,7 C 12,2 C 80 % 1018,8 hPa 0,0 l/m 0,0 km/h (0 Bft) N-NO 20 0 min 0 lux 0 W/m
11.10.2016 22:25 9,7 C 12,2 C 80 % 1018,8 hPa 0,0 l/m 1,5 km/h (1 Bft) N-NO 15 0 min 0 lux 0 W/m
11.10.2016 22:29 9,7 C 12,2 C 80 % 1018,8 hPa 0,0 l/m 5,8 km/h (2 Bft) N-NO22.5 15 0 min 0 lux 0 W/m
11.10.2016 22:34 9,6 C 12,2 C 80 % 1018,8 hPa 0,0 l/m 6,8 km/h (2 Bft) N22.5 10 0 min 0 lux 0 W/m
11.10.2016 22:39 9,6 C 12,2 C 80 % 1018,8 hPa 0,0 l/m 0,6 km/h (0 Bft) N-NO 15 0 min 0 lux 0 W/m
11.10.2016 22:45 9,6 C 12,2 C 80 % 1018,8 hPa 0,0 l/m 0,0 km/h (0 Bft) N 10 0 min 0 lux 0 W/m
11.10.2016 22:50 9,5 C 12,2 C 80 % 1018,8 hPa 0,0 l/m 0,1 km/h (0 Bft) N 360 0 min 0 lux 0 W/m
11.10.2016 22:54 9,4 C 12,1 C 80 % 1018,8 hPa 0,0 l/m 0,0 km/h (0 Bft) N 360 0 min 0 lux 0 W/m
11.10.2016 22:59 9,4 C 12,2 C 80 % 1018,8 hPa 0,0 l/m 0,3 km/h (0 Bft) N 360 0 min 0 lux 0 W/m
11.10.2016 23:05 9,5 C 12,2 C 81 % 1018,8 hPa 0,0 l/m 0,5 km/h (0 Bft) N 355 0 min 0 lux 0 W/m
11.10.2016 23:10 9,6 C 12,2 C 81 % 1018,8 hPa 0,0 l/m 0,8 km/h (0 Bft) N-NO 15 0 min 0 lux 0 W/m
11.10.2016 23:14 9,6 C 12,2 C 81 % 1018,8 hPa 0,0 l/m 6,1 km/h (2 Bft) N-NO22.5 15 0 min 0 lux 0 W/m
11.10.2016 23:19 9,6 C 12,2 C 81 % 1018,8 hPa 0,0 l/m 6,5 km/h (2 Bft) N-NO22.5 15 0 min 0 lux 0 W/m
11.10.2016 23:24 9,5 C 12,2 C 81 % 1018,8 hPa 0,0 l/m 7,1 km/h (2 Bft) N22.5 5 0 min 0 lux 0 W/m
11.10.2016 23:30 9,5 C 12,2 C 81 % 1018,8 hPa 0,0 l/m 9,8 km/h (2 Bft) N22.5 360 0 min 0 lux 0 W/m
11.10.2016 23:35 9,6 C 12,2 C 81 % 1018,8 hPa 0,0 l/m 5,2 km/h (1 Bft) N22.5 5 0 min 0 lux 0 W/m
11.10.2016 23:39 9,5 C 12,2 C 81 % 1018,8 hPa 0,0 l/m 4,2 km/h (1 Bft) N 360 0 min 0 lux 0 W/m
11.10.2016 23:44 9,6 C 12,2 C 81 % 1018,8 hPa 0,0 l/m 5,2 km/h (1 Bft) N22.5 350 0 min 0 lux 0 W/m
11.10.2016 23:49 9,6 C 12,2 C 81 % 1018,8 hPa 0,0 l/m 3,2 km/h (1 Bft) N 355 0 min 0 lux 0 W/m
11.10.2016 23:55 9,6 C 12,2 C 81 % 1018,8 hPa 0,0 l/m 0,0 km/h (0 Bft) N 355 0 min 0 lux 0 W/m
11.10.2016 23:59 9,5 C 12,2 C 81 % 1018,8 hPa 0,0 l/m 0,0 km/h (0 Bft) N 355 0 min 0 lux 0 W/m
_ Min-Zeit 05:14 08:14 14:39 14:59 - 00:24 - - - - -
Minimum _ 3,9 C 8,7 C 57 % 1018,8 hPa - 0,0 km/h (0 Bft) - - - - -
_ Max-Zeit 14:59 14:59 07:24 02:55 00:04 16:49 - - 11:10 12:00 12:00
Maximum _ 13,4 C 12,9 C 87 % 1020,9 hPa 0,0 l/m 17,0 km/h
N-NO (3 Bft)
- - 6 min 61,6 klux 421 W/m
Durchschnitt _ 8,3 C 10,9 C 77 % 1019,7 hPa #0,0 l/m 4,1 km/h (1 Bft) N-NO - #1:10 h 7,95 klux 121 W/m